CZ-3B DEB, 40169

Orbit data source: Space-Track

CZ-3B DEB, 40169 is space debris in HEO originally from a launch on Sat, 04 Sep 2010 UTC launched from the Xichang Space Center, China (XSC). Debris objects in space refer to the collection of defunct objects orbiting the Earth. Examples of debris include non-operational satellites, rocket bodies, and fragments generated from explosions, collisions, or faulty payload assembly.

Loading next visibility...
Identifier
40169, 2010-042W
Orbit
HEO
Country
Flag of CNCN / PRC
Related business
Manufacturer
CALT
Mission
Spacecraft
Bus & Motor
Unknown
Mass
Unknown
Launch date (UTC)
2010-09-04 (16 years ago)
Launch vehicle
Unknown
Launch site
Xichang Space Center, China (XSC)
Object type
Payload
Rocket body
Debris
Shape & HBR
Unknown shape, 0.2 m
Radar Cross Section
Medium (>0.1 m² and <1 m²)

Expand to show TLE details & history
Last TLE update: 4 days ago

TLE from 4 days ago
0 CZ-3B DEB
1 40169U 10042W   26232.25319523 -.00000188  00000-0  00000-0 0  9990
2 40169  25.7248 219.8945 7237999  65.0492 355.1176  1.93993332 99042
Epoch: 2026-08-20T06:04Z
TLE epoch observation values (Epoch: 2026-08-20T06:04:36.067Z)
Latitude
9.97296°
Longitude
-178.63536°
Altitude
2,006.211 km
Speed
8.967 km/s
True Right ascension
16h 04m 26s
True Declination
9° 55' 23"
Sunlit
Object was in daylight at epoch
Visualization orbit readout
Latitude
Unknown
Longitude
Unknown
Altitude
Unknown
Speed
Unknown
Apparent Right ascension
Unknown
Apparent Declination
Unknown
Sunlit
N/A
Visualization observer readout
Local Sidereal Time
00:46:31
Azimuth
Unknown
Elevation
Unknown
Doppler factor
Unknown
Orbital elements
Apogee altitude
40,440.747 km
Perigee altitude
1,123.534 km
Semi-major axis
27,160.278 km
Eccentricity
0.7238
Inclination
25.7248°
RAAN
219.8945°
Arg. of periapsis
65.0492°
True anomaly
318.99974°
Mean anomaly
355.1176°
Eccentric anomaly
342.97644°
Mean motion
0.48489 °/min
Orbital period
742.44 mins
BSTAR
0
Loading maneuver chart data...
Computing Atmospheric mass density...
Loading historical data...
Loading historical data...
Loading historical data...
Loading historical data...
Loading historical data...
Loading historical data...
Loading historical data...

Documentation

Showing up to 5 results
|